"datetime","temp","dp","rain_mm","uv","solar","mb","wind_mph","gust_mph","windchill","rh"
"2024-02-07 00:00:00",11.6,10.8,0.0,0.0,0,1002.5,2,4,"",95
"2024-02-07 00:01:00",11.6,10.8,0.0,0.0,0,1002.5,3,3,"",95
"2024-02-07 00:02:00",11.6,10.8,0.0,0.0,0,1002.5,3,3,"",95
"2024-02-07 00:03:00",11.6,10.8,0.0,0.0,0,1002.5,3,4,"",95
"2024-02-07 00:04:00",11.6,10.8,0.0,0.0,0,1002.5,2,4,"",95
"2024-02-07 00:05:00",11.6,10.8,0.0,0.0,0,1002.5,4,5,"",95
"2024-02-07 00:06:00",11.6,10.8,0.0,0.0,0,1002.5,3,5,"",95
"2024-02-07 00:07:00",11.6,10.8,0.0,0.0,0,1002.6,2,3,"",95
"2024-02-07 00:08:00",11.6,10.8,0.0,0.0,0,1002.6,1,3,"",95
"2024-02-07 00:09:00",11.6,10.8,0.0,0.0,0,1002.6,3,4,"",95
"2024-02-07 00:10:00",11.6,10.8,0.0,0.0,0,1002.6,2,6,"",95
"2024-02-07 00:11:00",11.6,10.8,0.0,0.0,0,1002.5,3,5,"",95
"2024-02-07 00:12:00",11.6,10.8,0.0,0.0,0,1002.6,3,6,"",95
"2024-02-07 00:13:00",11.6,10.8,0.0,0.0,0,1002.5,3,5,"",95
"2024-02-07 00:14:00",11.6,10.8,0.0,0.0,0,1002.6,1,2,"",95
"2024-02-07 00:15:00",11.6,10.8,0.0,0.0,0,1002.6,1,3,"",95
"2024-02-07 00:16:00",11.6,10.8,0.2,0.0,0,1002.6,4,7,"",95
"2024-02-07 00:17:00",11.6,10.8,0.2,0.0,0,1002.6,2,5,"",95
"2024-02-07 00:18:00",11.5,10.7,0.2,0.0,0,1002.7,1,3,"",95
"2024-02-07 00:19:00",11.6,10.8,0.2,0.0,0,1002.7,3,4,"",95
"2024-02-07 00:20:00",11.6,10.8,0.2,0.0,0,1002.8,1,3,"",95
"2024-02-07 00:21:00",11.6,10.8,0.2,0.0,0,1002.9,1,2,"",95
"2024-02-07 00:22:00",11.6,10.8,0.2,0.0,0,1002.9,2,4,"",95
"2024-02-07 00:23:00",11.6,10.8,0.2,0.0,0,1003.0,2,3,"",95
"2024-02-07 00:24:00",11.6,10.8,0.2,0.0,0,1003.1,4,5,"",95
"2024-02-07 00:25:00",11.6,10.8,0.2,0.0,0,1003.1,3,6,"",95
"2024-02-07 00:26:00",11.5,10.7,0.4,0.0,0,1003.1,2,4,"",95
"2024-02-07 00:27:00",11.5,10.7,0.4,0.0,0,1003.1,3,5,"",95
"2024-02-07 00:28:00",11.4,10.6,0.4,0.0,0,1003.1,3,4,"",95
"2024-02-07 00:29:00",11.4,10.6,0.6,0.0,0,1003.1,3,4,"",95
"2024-02-07 00:30:00",11.4,10.6,0.8,0.0,0,1003.1,2,3,"",95
"2024-02-07 00:31:00",11.4,10.6,1.0,0.0,0,1003.2,2,4,"",95
"2024-02-07 00:32:00",11.3,10.5,1.4,0.0,0,1003.2,4,6,"",95
"2024-02-07 00:33:00",11.2,10.3,1.6,0.0,0,1003.1,3,4,"",94
"2024-02-07 00:34:00",11.2,10.3,1.8,0.0,0,1003.2,2,3,"",94
"2024-02-07 00:35:00",11.1,10.2,2.0,0.0,0,1003.4,3,4,"",94
"2024-02-07 00:36:00",11.1,10.2,2.0,0.0,0,1003.3,4,6,"",94
"2024-02-07 00:37:00",10.9,10.0,2.2,0.0,0,1003.2,5,7,"",94
"2024-02-07 00:38:00",10.8,9.9,2.2,0.0,0,1003.1,3,5,"",94
"2024-02-07 00:39:00",10.8,9.9,2.4,0.0,0,1003.2,4,5,"",94
"2024-02-07 00:40:00",10.7,9.8,2.6,0.0,0,1003.2,4,6,"",94
"2024-02-07 00:41:00",10.6,9.7,2.6,0.0,0,1003.2,2,4,"",94
"2024-02-07 00:42:00",10.6,9.7,2.6,0.0,0,1003.3,2,4,"",94
"2024-02-07 00:43:00",10.4,9.5,2.6,0.0,0,1003.3,3,5,"",94
"2024-02-07 00:44:00",10.3,9.4,2.8,0.0,0,1003.2,2,4,"",94
"2024-02-07 00:45:00",10.3,9.4,2.8,0.0,0,1003.3,2,5,"",94
"2024-02-07 00:46:00",10.2,9.3,2.8,0.0,0,1003.2,1,2,"",94
"2024-02-07 00:47:00",10.1,9.2,2.8,0.0,0,1003.3,2,3,"",94
"2024-02-07 00:48:00",10.1,9.0,3.0,0.0,0,1003.4,1,1,"",93
"2024-02-07 00:49:00",10.0,9.1,3.0,0.0,0,1003.3,1,2,"",94
"2024-02-07 00:50:00",9.9,9.0,3.0,0.0,0,1003.3,2,4,9.2,94
"2024-02-07 00:51:00",9.9,9.0,3.0,0.0,0,1003.3,2,4,9.2,94
"2024-02-07 00:52:00",9.8,8.9,3.0,0.0,0,1003.4,2,3,"",94
"2024-02-07 00:53:00",9.8,8.9,3.2,0.0,0,1003.4,1,2,"",94
"2024-02-07 00:54:00",9.8,8.9,3.2,0.0,0,1003.4,1,2,"",94
"2024-02-07 00:55:00",9.7,8.8,3.2,0.0,0,1003.4,1,2,"",94
"2024-02-07 00:56:00",9.7,8.6,3.2,0.0,0,1003.4,2,3,"",93
"2024-02-07 00:57:00",9.6,8.5,3.2,0.0,0,1003.4,2,3,"",93
"2024-02-07 00:58:00",9.6,8.7,3.4,0.0,0,1003.5,1,3,"",94
"2024-02-07 00:59:00",9.6,8.7,3.4,0.0,0,1003.5,1,2,"",94
"2024-02-07 01:00:00",9.5,8.6,3.4,0.0,0,1003.5,3,4,8.8,94
"2024-02-07 01:01:00",9.5,8.6,3.4,0.0,0,1003.5,1,2,"",94
"2024-02-07 01:02:00",9.5,8.6,3.4,0.0,0,1003.5,2,3,"",94
"2024-02-07 01:03:00",9.3,8.2,3.4,0.0,0,1003.4,3,4,8.6,93
"2024-02-07 01:04:00",9.3,8.2,3.6,0.0,0,1003.5,2,4,8.6,93
"2024-02-07 01:05:00",9.2,8.1,3.6,0.0,0,1003.5,2,3,"",93
"2024-02-07 01:06:00",9.2,8.1,3.6,0.0,0,1003.5,2,3,"",93
"2024-02-07 01:07:00",9.1,8.0,3.6,0.0,0,1003.5,3,4,8.3,93
"2024-02-07 01:08:00",9.0,7.9,3.6,0.0,0,1003.6,2,4,8.3,93
"2024-02-07 01:09:00",9.0,7.9,3.6,0.0,0,1003.5,2,3,"",93
"2024-02-07 01:10:00",8.9,7.8,3.8,0.0,0,1003.6,2,2,"",93
"2024-02-07 01:11:00",8.9,7.8,3.8,0.0,0,1003.5,1,3,"",93
"2024-02-07 01:12:00",8.9,7.8,3.8,0.0,0,1003.6,2,3,"",93
"2024-02-07 01:13:00",8.8,7.7,3.8,0.0,0,1003.5,2,3,"",93
"2024-02-07 01:14:00",8.8,7.7,3.8,0.0,0,1003.6,2,3,"",93
"2024-02-07 01:15:00",8.8,7.7,3.8,0.0,0,1003.6,1,3,"",93
"2024-02-07 01:16:00",8.7,7.6,3.8,0.0,0,1003.6,1,3,"",93
"2024-02-07 01:17:00",8.7,7.6,3.8,0.0,0,1003.6,2,3,"",93
"2024-02-07 01:18:00",8.7,7.6,3.8,0.0,0,1003.6,2,3,"",93
"2024-02-07 01:19:00",8.6,7.5,3.8,0.0,0,1003.6,3,7,6.7,93
"2024-02-07 01:20:00",8.5,7.4,3.8,0.0,0,1003.6,3,5,7.4,93
"2024-02-07 01:21:00",8.4,7.3,3.8,0.0,0,1003.6,2,4,7.5,93
"2024-02-07 01:22:00",8.3,7.2,4.0,0.0,0,1003.7,2,4,7.4,93
"2024-02-07 01:23:00",8.3,7.2,4.0,0.0,0,1003.7,2,3,"",93
"2024-02-07 01:24:00",8.2,7.1,4.0,0.0,0,1003.7,2,3,"",93
"2024-02-07 01:25:00",8.1,7.0,4.0,0.0,0,1003.8,1,3,"",93
"2024-02-07 01:26:00",8.1,7.0,4.0,0.0,0,1003.7,2,4,7.2,93
"2024-02-07 01:27:00",8.1,7.0,4.0,0.0,0,1003.8,2,4,7.2,93
"2024-02-07 01:28:00",8.0,6.9,4.2,0.0,0,1003.7,2,5,6.6,93
"2024-02-07 01:29:00",7.9,6.8,4.2,0.0,0,1003.7,2,4,6.9,93
"2024-02-07 01:30:00",7.9,6.8,4.2,0.0,0,1003.7,2,3,"",93
"2024-02-07 01:31:00",7.8,6.7,4.2,0.0,0,1003.7,3,5,6.4,93
"2024-02-07 01:32:00",7.8,6.7,4.2,0.0,0,1003.7,4,6,6.1,93
"2024-02-07 01:33:00",7.8,6.7,4.2,0.0,0,1003.7,1,3,"",93
"2024-02-07 01:34:00",7.7,6.6,4.2,0.0,0,1003.7,2,3,"",93
"2024-02-07 01:35:00",7.7,6.6,4.2,0.0,0,1003.8,1,2,"",93
"2024-02-07 01:36:00",7.7,6.6,4.2,0.0,0,1003.8,2,4,6.7,93
"2024-02-07 01:37:00",7.6,6.5,4.2,0.0,0,1003.8,2,3,"",93
"2024-02-07 01:38:00",7.6,6.5,4.2,0.0,0,1003.7,2,3,"",93
"2024-02-07 01:39:00",7.6,6.5,4.2,0.0,0,1003.8,2,3,"",93
"2024-02-07 01:40:00",7.6,6.5,4.2,0.0,0,1003.8,2,3,"",93
"2024-02-07 01:41:00",7.5,6.4,4.2,0.0,0,1003.8,2,3,"",93
"2024-02-07 01:42:00",7.5,6.4,4.2,0.0,0,1003.8,1,3,"",93
"2024-02-07 01:43:00",7.4,6.3,4.2,0.0,0,1003.9,2,3,"",93
"2024-02-07 01:44:00",7.4,6.3,4.4,0.0,0,1003.8,2,4,6.4,93
"2024-02-07 01:45:00",7.3,6.2,4.4,0.0,0,1003.8,2,4,6.4,93
"2024-02-07 01:46:00",7.3,6.2,4.4,0.0,0,1003.9,2,3,"",93
"2024-02-07 01:47:00",7.2,6.1,4.4,0.0,0,1003.8,2,3,"",93
"2024-02-07 01:48:00",7.2,6.1,4.4,0.0,0,1003.8,3,6,5.4,93
"2024-02-07 01:49:00",7.1,6.0,4.4,0.0,0,1003.8,3,7,4.9,93
"2024-02-07 01:50:00",7.1,6.0,4.4,0.0,0,1003.7,3,7,4.9,93
"2024-02-07 01:51:00",7.0,5.9,4.4,0.0,0,1003.8,3,6,5.2,93
"2024-02-07 01:52:00",6.9,5.8,4.4,0.0,0,1003.7,2,4,5.8,93
"2024-02-07 01:53:00",6.9,5.8,4.6,0.0,0,1003.8,3,3,"",93
"2024-02-07 01:54:00",6.9,5.8,4.6,0.0,0,1003.8,2,4,5.8,93
"2024-02-07 01:55:00",6.8,5.7,4.6,0.0,0,1003.7,5,10,3.8,93
"2024-02-07 01:56:00",6.8,5.7,4.6,0.0,0,1003.8,3,5,5.2,93
"2024-02-07 01:57:00",6.8,5.7,4.6,0.0,0,1003.7,2,4,5.7,93
"2024-02-07 01:58:00",6.7,5.6,4.6,0.0,0,1003.7,2,3,"",93
"2024-02-07 01:59:00",6.7,5.6,4.6,0.0,0,1003.8,2,3,"",93
"2024-02-07 02:00:00",6.6,5.5,4.6,0.0,0,1003.8,2,3,"",93
"2024-02-07 02:01:00",6.7,5.6,4.6,0.0,0,1003.8,2,3,"",93
"2024-02-07 02:02:00",6.6,5.5,4.6,0.0,0,1003.8,4,7,4.3,93
"2024-02-07 02:03:00",6.6,5.5,4.6,0.0,0,1003.9,4,7,4.3,93
"2024-02-07 02:04:00",6.5,5.4,4.6,0.0,0,1003.9,3,6,4.6,93
"2024-02-07 02:05:00",6.5,5.4,4.6,0.0,0,1003.9,2,3,"",93
"2024-02-07 02:06:00",6.4,5.4,4.6,0.0,0,1003.9,2,4,5.2,93
"2024-02-07 02:07:00",6.4,5.4,4.6,0.0,0,1003.9,2,3,"",93
"2024-02-07 02:08:00",6.4,5.4,4.6,0.0,0,1003.9,2,3,"",93
"2024-02-07 02:09:00",6.3,5.3,4.6,0.0,0,1003.9,2,3,"",93
"2024-02-07 02:10:00",6.3,5.3,4.6,0.0,0,1003.9,1,4,5.1,93
"2024-02-07 02:11:00",6.3,5.3,4.6,0.0,0,1003.9,1,3,"",93
"2024-02-07 02:12:00",6.3,5.3,4.6,0.0,0,1003.9,1,2,"",93
"2024-02-07 02:13:00",6.3,5.3,4.6,0.0,0,1003.9,1,3,"",93
"2024-02-07 02:14:00",6.3,5.3,4.6,0.0,0,1003.9,1,2,"",93
"2024-02-07 02:15:00",6.3,5.3,4.6,0.0,0,1003.9,2,4,5.1,93
"2024-02-07 02:16:00",6.2,5.2,4.8,0.0,0,1003.9,2,3,"",93
"2024-02-07 02:17:00",6.2,5.2,4.8,0.0,0,1003.9,1,2,"",93
"2024-02-07 02:18:00",6.2,5.2,4.8,0.0,0,1003.9,1,2,"",93
"2024-02-07 02:19:00",6.2,5.2,4.8,0.0,0,1003.9,3,5,4.5,93
"2024-02-07 02:20:00",6.2,5.2,4.8,0.0,0,1003.9,2,3,"",93
"2024-02-07 02:21:00",6.2,5.2,4.8,0.0,0,1003.9,2,5,4.5,93
"2024-02-07 02:22:00",6.2,5.2,4.8,0.0,0,1003.8,2,5,4.5,93
"2024-02-07 02:23:00",6.1,5.1,4.8,0.0,0,1003.9,1,2,"",93
"2024-02-07 02:24:00",6.1,5.1,4.8,0.0,0,1003.9,2,3,"",93
"2024-02-07 02:25:00",6.1,5.1,4.8,0.0,0,1003.9,1,2,"",93
"2024-02-07 02:26:00",6.1,5.1,4.8,0.0,0,1003.9,1,2,"",93
"2024-02-07 02:27:00",6.1,5.1,4.8,0.0,0,1003.9,1,2,"",93
"2024-02-07 02:28:00",6.1,5.1,4.8,0.0,0,1003.9,2,3,"",93
"2024-02-07 02:29:00",6.1,5.1,4.8,0.0,0,1003.9,2,4,4.9,93
"2024-02-07 02:30:00",6.1,5.1,4.8,0.0,0,1003.9,2,3,"",93
"2024-02-07 02:31:00",6.1,5.1,4.8,0.0,0,1003.9,2,4,4.9,93
"2024-02-07 02:32:00",6.1,5.1,4.8,0.0,0,1003.9,1,2,"",93
"2024-02-07 02:33:00",6.0,5.0,4.8,0.0,0,1003.9,1,2,"",93
"2024-02-07 02:34:00",6.0,5.0,5.0,0.0,0,1003.9,1,2,"",93
"2024-02-07 02:35:00",6.0,5.0,5.0,0.0,0,1003.9,1,2,"",93
"2024-02-07 02:36:00",6.0,5.0,5.0,0.0,0,1003.9,1,2,"",93
"2024-02-07 02:37:00",5.9,4.9,5.0,0.0,0,1003.9,2,3,"",93
"2024-02-07 02:38:00",6.0,5.0,5.0,0.0,0,1003.9,2,4,4.7,93
"2024-02-07 02:39:00",6.0,5.0,5.0,0.0,0,1003.9,2,3,"",93
"2024-02-07 02:40:00",5.9,4.9,5.0,0.0,0,1003.9,1,2,"",93
"2024-02-07 02:41:00",5.9,4.9,5.0,0.0,0,1003.9,2,2,"",93
"2024-02-07 02:42:00",5.9,4.9,5.0,0.0,0,1003.9,3,5,4.2,93
"2024-02-07 02:43:00",5.9,4.9,5.0,0.0,0,1003.9,2,6,3.8,93
"2024-02-07 02:44:00",5.9,4.9,5.0,0.0,0,1003.9,1,3,"",93
"2024-02-07 02:45:00",5.9,4.9,5.0,0.0,0,1003.9,2,3,"",93
"2024-02-07 02:46:00",5.9,5.0,5.0,0.0,0,1003.9,3,5,4.2,94
"2024-02-07 02:47:00",5.9,4.9,5.0,0.0,0,1003.9,3,6,3.8,93
"2024-02-07 02:48:00",5.8,4.8,5.0,0.0,0,1003.8,2,3,"",93
"2024-02-07 02:49:00",5.9,5.0,5.0,0.0,0,1003.8,2,3,"",94
"2024-02-07 02:50:00",5.9,4.9,5.0,0.0,0,1003.8,3,6,3.8,93
"2024-02-07 02:51:00",5.9,4.9,5.0,0.0,0,1003.8,2,4,4.5,93
"2024-02-07 02:52:00",5.8,4.8,5.0,0.0,0,1003.9,2,3,"",93
"2024-02-07 02:53:00",5.8,4.8,5.0,0.0,0,1003.8,2,4,4.5,93
"2024-02-07 02:54:00",5.8,4.8,5.0,0.0,0,1003.8,2,4,4.5,93
"2024-02-07 02:55:00",5.8,4.9,5.0,0.0,0,1003.8,2,3,"",94
"2024-02-07 02:56:00",5.8,4.9,5.0,0.0,0,1003.8,1,2,"",94
"2024-02-07 02:57:00",5.8,4.9,5.0,0.0,0,1003.8,1,2,"",94
"2024-02-07 02:58:00",5.8,4.9,5.0,0.0,0,1003.8,1,2,"",94
"2024-02-07 02:59:00",5.8,4.9,5.0,0.0,0,1003.7,1,2,"",94
"2024-02-07 03:00:00",5.8,4.9,5.0,0.0,0,1003.7,1,2,"",94
"2024-02-07 03:01:00",5.8,4.9,5.0,0.0,0,1003.7,1,3,"",94
"2024-02-07 03:02:00",5.8,4.9,5.0,0.0,0,1003.7,2,4,4.5,94
"2024-02-07 03:03:00",5.8,4.9,5.0,0.0,0,1003.7,1,2,"",94
"2024-02-07 03:04:00",5.8,4.9,5.0,0.0,0,1003.7,3,4,4.5,94
"2024-02-07 03:05:00",5.8,4.9,5.0,0.0,0,1003.7,2,3,"",94
"2024-02-07 03:06:00",5.8,4.9,5.0,0.0,0,1003.7,2,2,"",94
"2024-02-07 03:07:00",5.8,4.9,5.0,0.0,0,1003.7,1,2,"",94
"2024-02-07 03:08:00",5.8,4.9,5.0,0.0,0,1003.7,2,6,3.7,94
"2024-02-07 03:09:00",5.7,4.8,5.0,0.0,0,1003.7,2,4,4.4,94
"2024-02-07 03:10:00",5.7,4.8,5.0,0.0,0,1003.7,3,4,4.4,94
"2024-02-07 03:11:00",5.7,4.8,5.0,0.0,0,1003.7,2,3,"",94
"2024-02-07 03:12:00",5.7,4.8,5.0,0.0,0,1003.7,1,4,4.4,94
"2024-02-07 03:13:00",5.7,4.8,5.0,0.0,0,1003.8,2,4,4.4,94
"2024-02-07 03:14:00",5.7,4.8,5.0,0.0,0,1003.8,2,4,4.4,94
"2024-02-07 03:15:00",5.7,4.8,5.0,0.0,0,1003.7,4,7,3.2,94
"2024-02-07 03:16:00",5.7,4.8,5.0,0.0,0,1003.8,2,3,"",94
"2024-02-07 03:17:00",5.7,4.8,5.2,0.0,0,1003.7,2,2,"",94
"2024-02-07 03:18:00",5.7,4.8,5.2,0.0,0,1003.7,1,2,"",94
"2024-02-07 03:19:00",5.7,4.8,5.2,0.0,0,1003.8,2,3,"",94
"2024-02-07 03:20:00",5.7,4.8,5.2,0.0,0,1003.8,2,4,4.4,94
"2024-02-07 03:21:00",5.7,4.8,5.2,0.0,0,1003.8,3,5,3.9,94
"2024-02-07 03:22:00",5.7,4.8,5.2,0.0,0,1003.7,3,4,4.4,94
"2024-02-07 03:23:00",5.7,4.8,5.2,0.0,0,1003.7,2,3,"",94
"2024-02-07 03:24:00",5.7,4.8,5.2,0.0,0,1003.7,2,3,"",94
"2024-02-07 03:25:00",5.7,4.8,5.2,0.0,0,1003.8,2,3,"",94
"2024-02-07 03:26:00",5.7,4.8,5.2,0.0,0,1003.8,2,3,"",94
"2024-02-07 03:27:00",5.7,4.8,5.2,0.0,0,1003.8,2,4,4.4,94
"2024-02-07 03:28:00",5.7,4.8,5.2,0.0,0,1003.7,3,4,4.4,94
"2024-02-07 03:29:00",5.7,4.8,5.2,0.0,0,1003.7,1,3,"",94
"2024-02-07 03:30:00",5.7,4.8,5.2,0.0,0,1003.7,1,2,"",94
"2024-02-07 03:31:00",5.7,4.8,5.2,0.0,0,1003.8,1,2,"",94
"2024-02-07 03:32:00",5.6,4.7,5.2,0.0,0,1003.8,1,3,"",94
"2024-02-07 03:33:00",5.6,4.7,5.2,0.0,0,1003.7,2,3,"",94
"2024-02-07 03:34:00",5.7,4.8,5.2,0.0,0,1003.7,2,3,"",94
"2024-02-07 03:35:00",5.6,4.7,5.2,0.0,0,1003.7,1,3,"",94
"2024-02-07 03:36:00",5.6,4.7,5.2,0.0,0,1003.8,1,2,"",94
"2024-02-07 03:37:00",5.6,4.7,5.2,0.0,0,1003.8,3,6,3.4,94
"2024-02-07 03:38:00",5.6,4.7,5.2,0.0,0,1003.7,2,3,"",94
"2024-02-07 03:39:00",5.6,4.7,5.2,0.0,0,1003.7,1,3,"",94
"2024-02-07 03:40:00",5.6,4.7,5.2,0.0,0,1003.7,2,3,"",94
"2024-02-07 03:41:00",5.6,4.7,5.2,0.0,0,1003.7,2,3,"",94
"2024-02-07 03:42:00",5.6,4.7,5.2,0.0,0,1003.7,1,3,"",94
"2024-02-07 03:43:00",5.6,4.7,5.2,0.0,0,1003.7,2,3,"",94
"2024-02-07 03:44:00",5.6,4.7,5.2,0.0,0,1003.7,2,4,4.3,94
"2024-02-07 03:45:00",5.6,4.7,5.2,0.0,0,1003.7,2,4,4.3,94
"2024-02-07 03:46:00",5.6,4.7,5.2,0.0,0,1003.7,1,2,"",94
"2024-02-07 03:47:00",5.6,4.7,5.2,0.0,0,1003.7,2,4,4.3,94
"2024-02-07 03:48:00",5.6,4.7,5.4,0.0,0,1003.6,1,2,"",94
"2024-02-07 03:49:00",5.6,4.7,5.4,0.0,0,1003.6,1,3,"",94
"2024-02-07 03:50:00",5.6,4.7,5.4,0.0,0,1003.6,1,2,"",94
"2024-02-07 03:51:00",5.6,4.7,5.4,0.0,0,1003.7,1,2,"",94
"2024-02-07 03:52:00",5.6,4.7,5.4,0.0,0,1003.6,2,4,4.3,94
"2024-02-07 03:53:00",5.6,4.7,5.4,0.0,0,1003.6,2,3,"",94
"2024-02-07 03:54:00",5.6,4.7,5.4,0.0,0,1003.6,1,2,"",94
"2024-02-07 03:55:00",5.6,4.7,5.4,0.0,0,1003.6,2,3,"",94
"2024-02-07 03:56:00",5.6,4.7,5.4,0.0,0,1003.6,3,5,3.8,94
"2024-02-07 03:57:00",5.6,4.7,5.4,0.0,0,1003.6,2,3,"",94
"2024-02-07 03:58:00",5.5,4.6,5.4,0.0,0,1003.5,2,4,4.2,94
"2024-02-07 03:59:00",5.5,4.6,5.4,0.0,0,1003.6,3,4,4.3,94
"2024-02-07 04:00:00",5.5,4.6,5.4,0.0,0,1003.5,1,3,"",94
"2024-02-07 04:01:00",5.5,4.6,5.4,0.0,0,1003.6,2,4,4.2,94
"2024-02-07 04:02:00",5.5,4.6,5.4,0.0,0,1003.5,1,2,"",94
"2024-02-07 04:03:00",5.5,4.6,5.4,0.0,0,1003.6,2,4,4.2,94
"2024-02-07 04:04:00",5.5,4.6,5.4,0.0,0,1003.6,1,2,"",94
"2024-02-07 04:05:00",5.5,4.6,5.4,0.0,0,1003.5,1,2,"",94
"2024-02-07 04:06:00",5.5,4.6,5.4,0.0,0,1003.6,2,4,4.2,94
"2024-02-07 04:07:00",5.5,4.6,5.4,0.0,0,1003.6,2,3,"",94
"2024-02-07 04:08:00",5.5,4.6,5.4,0.0,0,1003.6,1,3,"",94
"2024-02-07 04:09:00",5.5,4.6,5.4,0.0,0,1003.6,1,2,"",94
"2024-02-07 04:10:00",5.5,4.6,5.4,0.0,0,1003.6,1,2,"",94
"2024-02-07 04:11:00",5.5,4.6,5.4,0.0,0,1003.7,1,2,"",94
"2024-02-07 04:12:00",5.5,4.6,5.6,0.0,0,1003.7,1,1,"",94
"2024-02-07 04:13:00",5.5,4.6,5.6,0.0,0,1003.6,2,3,"",94
"2024-02-07 04:14:00",5.5,4.6,5.6,0.0,0,1003.7,2,6,3.3,94
"2024-02-07 04:15:00",5.5,4.6,5.6,0.0,0,1003.6,1,3,"",94
"2024-02-07 04:16:00",5.5,4.6,5.6,0.0,0,1003.6,2,4,4.2,94
"2024-02-07 04:17:00",5.4,4.5,5.6,0.0,0,1003.6,2,4,4.0,94
"2024-02-07 04:18:00",5.4,4.5,5.6,0.0,0,1003.6,2,3,"",94
"2024-02-07 04:19:00",5.4,4.5,5.6,0.0,0,1003.7,1,2,"",94
"2024-02-07 04:20:00",5.4,4.5,5.6,0.0,0,1003.7,1,2,"",94
"2024-02-07 04:21:00",5.4,4.5,5.6,0.0,0,1003.7,2,3,"",94
"2024-02-07 04:22:00",5.4,4.5,5.6,0.0,0,1003.7,2,3,"",94
"2024-02-07 04:23:00",5.4,4.5,5.6,0.0,0,1003.7,1,2,"",94
"2024-02-07 04:24:00",5.4,4.5,5.6,0.0,0,1003.8,1,2,"",94
"2024-02-07 04:25:00",5.4,4.5,5.6,0.0,0,1003.8,1,2,"",94
"2024-02-07 04:26:00",5.4,4.5,5.6,0.0,0,1003.8,1,1,"",94
"2024-02-07 04:27:00",5.5,4.6,5.6,0.0,0,1003.8,1,3,"",94
"2024-02-07 04:28:00",5.4,4.5,5.6,0.0,0,1003.8,1,2,"",94
"2024-02-07 04:29:00",5.4,4.5,5.8,0.0,0,1003.8,1,2,"",94
"2024-02-07 04:30:00",5.4,4.5,5.8,0.0,0,1003.8,1,3,"",94
"2024-02-07 04:31:00",5.4,4.5,5.8,0.0,0,1003.8,1,2,"",94
"2024-02-07 04:32:00",5.4,4.5,5.8,0.0,0,1003.8,2,3,"",94
"2024-02-07 04:33:00",5.4,4.5,5.8,0.0,0,1003.9,2,3,"",94
"2024-02-07 04:34:00",5.4,4.5,5.8,0.0,0,1003.8,1,2,"",94
"2024-02-07 04:35:00",5.5,4.6,5.8,0.0,0,1003.8,1,2,"",94
"2024-02-07 04:36:00",5.4,4.5,5.8,0.0,0,1003.8,1,2,"",94
"2024-02-07 04:37:00",5.4,4.5,5.8,0.0,0,1003.8,1,2,"",94
"2024-02-07 04:38:00",5.4,4.5,5.8,0.0,0,1003.8,1,1,"",94
"2024-02-07 04:39:00",5.4,4.5,5.8,0.0,0,1003.7,1,2,"",94
"2024-02-07 04:40:00",5.4,4.5,5.8,0.0,0,1003.8,2,3,"",94
"2024-02-07 04:41:00",5.4,4.5,5.8,0.0,0,1003.8,2,4,4.0,94
"2024-02-07 04:42:00",5.4,4.5,5.8,0.0,0,1003.8,1,2,"",94
"2024-02-07 04:43:00",5.4,4.5,5.8,0.0,0,1003.8,1,2,"",94
"2024-02-07 04:44:00",5.4,4.5,5.8,0.0,0,1003.8,2,3,"",94
"2024-02-07 04:45:00",5.5,4.6,5.8,0.0,0,1003.8,2,3,"",94
"2024-02-07 04:46:00",5.5,4.8,5.8,0.0,0,1003.8,2,3,"",95
"2024-02-07 04:47:00",5.4,4.5,5.8,0.0,0,1003.8,2,3,"",94
"2024-02-07 04:48:00",5.4,4.5,6.0,0.0,0,1003.8,1,2,"",94
"2024-02-07 04:49:00",5.4,4.5,6.0,0.0,0,1003.8,3,5,3.6,94
"2024-02-07 04:50:00",5.4,4.5,6.0,0.0,0,1003.8,2,4,4.0,94
"2024-02-07 04:51:00",5.4,4.7,6.0,0.0,0,1003.8,2,3,"",95
"2024-02-07 04:52:00",5.5,4.8,6.0,0.0,0,1003.9,3,5,3.7,95
"2024-02-07 04:53:00",5.4,4.7,6.0,0.0,0,1003.8,2,3,"",95
"2024-02-07 04:54:00",5.4,4.7,6.0,0.0,0,1003.9,2,3,"",95
"2024-02-07 04:55:00",5.5,4.8,6.0,0.0,0,1003.9,0,1,"",95
"2024-02-07 04:56:00",5.5,4.8,6.0,0.0,0,1003.9,1,2,"",95
"2024-02-07 04:57:00",5.5,4.6,6.0,0.0,0,1003.9,1,2,"",94
"2024-02-07 04:58:00",5.5,4.8,6.0,0.0,0,1003.9,2,3,"",95
"2024-02-07 04:59:00",5.4,4.7,6.0,0.0,0,1003.9,2,4,4.0,95
"2024-02-07 05:00:00",5.4,4.7,6.0,0.0,0,1003.9,2,3,"",95
"2024-02-07 05:01:00",5.4,4.7,6.0,0.0,0,1003.9,2,3,"",95
"2024-02-07 05:02:00",5.4,4.7,6.0,0.0,0,1003.9,1,2,"",95
"2024-02-07 05:03:00",5.4,4.7,6.0,0.0,0,1004.0,3,5,3.7,95
"2024-02-07 05:04:00",5.5,4.8,6.0,0.0,0,1003.9,2,4,4.2,95
"2024-02-07 05:05:00",5.4,4.7,6.0,0.0,0,1004.0,3,5,3.6,95
"2024-02-07 05:06:00",5.4,4.7,6.0,0.0,0,1004.0,2,3,"",95
"2024-02-07 05:07:00",5.4,4.5,6.0,0.0,0,1004.0,1,2,"",94
"2024-02-07 05:08:00",5.4,4.5,6.0,0.0,0,1004.0,1,2,"",94
"2024-02-07 05:09:00",5.4,4.5,6.0,0.0,0,1004.0,1,2,"",94
"2024-02-07 05:10:00",5.4,4.5,6.2,0.0,0,1004.0,2,3,"",94
"2024-02-07 05:11:00",5.4,4.5,6.2,0.0,0,1004.0,1,2,"",94
"2024-02-07 05:12:00",5.4,4.5,6.2,0.0,0,1004.0,2,3,"",94
"2024-02-07 05:13:00",5.4,4.5,6.2,0.0,0,1004.0,3,4,4.0,94
"2024-02-07 05:14:00",5.4,4.5,6.2,0.0,0,1004.0,1,2,"",94
"2024-02-07 05:15:00",5.4,4.7,6.2,0.0,0,1003.9,2,3,"",95
"2024-02-07 05:16:00",5.4,4.5,6.2,0.0,0,1003.9,2,5,3.6,94
"2024-02-07 05:17:00",5.4,4.7,6.2,0.0,0,1003.9,3,5,3.6,95
"2024-02-07 05:18:00",5.4,4.5,6.2,0.0,0,1003.9,2,2,"",94
"2024-02-07 05:19:00",5.4,4.5,6.2,0.0,0,1003.9,1,2,"",94
"2024-02-07 05:20:00",5.4,4.7,6.2,0.0,0,1003.9,1,2,"",95
"2024-02-07 05:21:00",5.4,4.5,6.2,0.0,0,1003.8,2,3,"",94
"2024-02-07 05:22:00",5.4,4.7,6.2,0.0,0,1003.8,1,2,"",95
"2024-02-07 05:23:00",5.4,4.5,6.2,0.0,0,1003.9,1,2,"",94
"2024-02-07 05:24:00",5.4,4.5,6.2,0.0,0,1003.9,1,3,"",94
"2024-02-07 05:25:00",5.4,4.5,6.2,0.0,0,1003.9,1,3,"",94
"2024-02-07 05:26:00",5.4,4.5,6.2,0.0,0,1003.8,2,4,4.0,94
"2024-02-07 05:27:00",5.4,4.5,6.2,0.0,0,1003.9,2,4,4.0,94
"2024-02-07 05:28:00",5.4,4.5,6.2,0.0,0,1003.9,1,2,"",94
"2024-02-07 05:29:00",5.4,4.5,6.2,0.0,0,1003.9,2,4,4.0,94
"2024-02-07 05:30:00",5.4,4.5,6.2,0.0,0,1003.8,1,2,"",94
"2024-02-07 05:31:00",5.4,4.5,6.2,0.0,0,1003.8,2,4,4.0,94
"2024-02-07 05:32:00",5.4,4.5,6.4,0.0,0,1003.8,2,3,"",94
"2024-02-07 05:33:00",5.4,4.5,6.4,0.0,0,1003.8,1,2,"",94
"2024-02-07 05:34:00",5.4,4.5,6.4,0.0,0,1003.8,2,3,"",94
"2024-02-07 05:35:00",5.4,4.5,6.4,0.0,0,1003.8,1,4,4.0,94
"2024-02-07 05:36:00",5.4,4.5,6.4,0.0,0,1003.8,1,2,"",94
"2024-02-07 05:37:00",5.4,4.5,6.4,0.0,0,1003.8,2,2,"",94
"2024-02-07 05:38:00",5.4,4.5,6.4,0.0,0,1003.9,1,2,"",94
"2024-02-07 05:39:00",5.4,4.5,6.4,0.0,0,1003.9,1,2,"",94
"2024-02-07 05:40:00",5.4,4.5,6.4,0.0,0,1003.9,1,2,"",94
"2024-02-07 05:41:00",5.4,4.5,6.4,0.0,0,1003.9,1,2,"",94
"2024-02-07 05:42:00",5.4,4.7,6.4,0.0,0,1003.9,1,3,"",95
"2024-02-07 05:43:00",5.4,4.5,6.4,0.0,0,1003.9,1,2,"",94
"2024-02-07 05:44:00",5.4,4.5,6.4,0.0,0,1003.9,2,3,"",94
"2024-02-07 05:45:00",5.4,4.7,6.4,0.0,0,1003.9,1,2,"",95
"2024-02-07 05:46:00",5.4,4.7,6.4,0.0,0,1003.9,1,2,"",95
"2024-02-07 05:47:00",5.4,4.7,6.4,0.0,0,1003.9,2,4,4.0,95
"2024-02-07 05:48:00",5.4,4.7,6.4,0.0,0,1003.9,2,4,4.0,95
"2024-02-07 05:49:00",5.4,4.7,6.4,0.0,0,1003.9,2,3,"",95
"2024-02-07 05:50:00",5.4,4.7,6.4,0.0,0,1003.9,1,2,"",95
"2024-02-07 05:51:00",5.4,4.7,6.4,0.0,0,1003.9,2,4,4.0,95
"2024-02-07 05:52:00",5.4,4.7,6.4,0.0,0,1003.9,2,4,4.0,95
"2024-02-07 05:53:00",5.4,4.7,6.4,0.0,0,1003.9,2,3,"",95
"2024-02-07 05:54:00",5.4,4.7,6.4,0.0,0,1004.0,1,2,"",95
"2024-02-07 05:55:00",5.4,4.7,6.4,0.0,0,1004.0,1,3,"",95
"2024-02-07 05:56:00",5.4,4.7,6.4,0.0,0,1004.0,1,2,"",95
"2024-02-07 05:57:00",5.4,4.7,6.4,0.0,0,1004.0,1,2,"",95
"2024-02-07 05:58:00",5.4,4.7,6.4,0.0,0,1004.0,1,2,"",95
"2024-02-07 05:59:00",5.4,4.7,6.4,0.0,0,1004.1,0,2,"",95
"2024-02-07 06:00:00",5.4,4.7,6.4,0.0,0,1004.0,3,8,2.6,95
"2024-02-07 06:01:00",5.4,4.7,6.4,0.0,0,1004.0,2,5,3.6,95
"2024-02-07 06:02:00",5.4,4.7,6.4,0.0,0,1004.0,2,3,"",95
"2024-02-07 06:03:00",5.4,4.7,6.4,0.0,0,1004.0,1,2,"",95
"2024-02-07 06:04:00",5.4,4.7,6.4,0.0,0,1004.0,1,2,"",95
"2024-02-07 06:05:00",5.4,4.7,6.4,0.0,0,1004.0,1,2,"",95
"2024-02-07 06:06:00",5.4,4.7,6.4,0.0,0,1004.0,1,2,"",95
"2024-02-07 06:07:00",5.4,4.7,6.4,0.0,0,1004.1,1,3,"",95
"2024-02-07 06:08:00",5.4,4.7,6.4,0.0,0,1004.1,0,1,"",95
"2024-02-07 06:09:00",5.4,4.7,6.4,0.0,0,1004.1,2,4,4.0,95
"2024-02-07 06:10:00",5.4,4.7,6.4,0.0,0,1004.1,1,2,"",95
"2024-02-07 06:11:00",5.4,4.7,6.4,0.0,0,1004.1,2,4,4.0,95
"2024-02-07 06:12:00",5.4,4.7,6.4,0.0,0,1004.1,1,3,"",95
"2024-02-07 06:13:00",5.4,4.7,6.4,0.0,0,1004.0,1,2,"",95
"2024-02-07 06:14:00",5.4,4.7,6.4,0.0,0,1004.0,1,2,"",95
"2024-02-07 06:15:00",5.4,4.7,6.4,0.0,0,1004.1,2,3,"",95
"2024-02-07 06:16:00",5.4,4.7,6.4,0.0,0,1004.1,1,2,"",95
"2024-02-07 06:17:00",5.4,4.7,6.4,0.0,0,1004.1,1,2,"",95
"2024-02-07 06:18:00",5.4,4.7,6.4,0.0,0,1004.1,1,2,"",95
"2024-02-07 06:19:00",5.4,4.7,6.4,0.0,0,1004.1,1,2,"",95
"2024-02-07 06:20:00",5.4,4.7,6.4,0.0,0,1004.0,2,3,"",95
"2024-02-07 06:21:00",5.4,4.7,6.4,0.0,0,1004.0,1,3,"",95
"2024-02-07 06:22:00",5.4,4.7,6.4,0.0,0,1004.0,1,3,"",95
"2024-02-07 06:23:00",5.4,4.7,6.4,0.0,0,1004.0,1,3,"",95
"2024-02-07 06:24:00",5.4,4.7,6.4,0.0,0,1004.0,1,2,"",95
"2024-02-07 06:25:00",5.4,4.7,6.4,0.0,0,1004.1,2,3,"",95
"2024-02-07 06:26:00",5.4,4.7,6.4,0.0,0,1004.1,2,4,4.0,95
"2024-02-07 06:27:00",5.4,4.7,6.4,0.0,0,1004.1,3,4,4.0,95
"2024-02-07 06:28:00",5.4,4.7,6.6,0.0,0,1004.1,3,5,3.6,95
"2024-02-07 06:29:00",5.4,4.7,6.6,0.0,0,1004.1,2,2,"",95
"2024-02-07 06:30:00",5.4,4.7,6.6,0.0,0,1004.1,3,6,3.2,95
"2024-02-07 06:31:00",5.4,4.7,6.6,0.0,0,1004.2,2,3,"",95
"2024-02-07 06:32:00",5.4,4.7,6.6,0.0,0,1004.2,2,3,"",95
"2024-02-07 06:33:00",5.4,4.7,6.6,0.0,0,1004.2,2,3,"",95
"2024-02-07 06:34:00",5.4,4.7,6.6,0.0,0,1004.2,2,3,"",95
"2024-02-07 06:35:00",5.4,4.7,6.6,0.0,0,1004.2,2,3,"",95
"2024-02-07 06:36:00",5.4,4.7,6.6,0.0,0,1004.3,3,4,4.0,95
"2024-02-07 06:37:00",5.4,4.7,6.6,0.0,0,1004.2,2,3,"",95
"2024-02-07 06:38:00",5.4,4.7,6.6,0.0,0,1004.2,2,4,4.0,95
"2024-02-07 06:39:00",5.4,4.7,6.6,0.0,0,1004.2,2,4,4.0,95
"2024-02-07 06:40:00",5.4,4.7,6.6,0.0,0,1004.2,2,3,"",95
"2024-02-07 06:41:00",5.4,4.7,6.6,0.0,0,1004.2,1,2,"",95
"2024-02-07 06:42:00",5.4,4.7,6.6,0.0,0,1004.2,1,2,"",95
"2024-02-07 06:43:00",5.4,4.7,6.6,0.0,0,1004.2,2,3,"",95
"2024-02-07 06:44:00",5.4,4.7,6.6,0.0,0,1004.2,2,3,"",95
"2024-02-07 06:45:00",5.4,4.7,6.6,0.0,0,1004.1,3,4,4.0,95
"2024-02-07 06:46:00",5.4,4.7,6.6,0.0,0,1004.1,3,5,3.6,95
"2024-02-07 06:47:00",5.4,4.7,6.6,0.0,0,1004.0,1,2,"",95
"2024-02-07 06:48:00",5.4,4.7,6.6,0.0,0,1004.0,2,4,4.0,95
"2024-02-07 06:49:00",5.4,4.7,6.6,0.0,0,1004.1,2,3,"",95
"2024-02-07 06:50:00",5.4,4.7,6.6,0.0,0,1004.0,2,3,"",95
"2024-02-07 06:51:00",5.4,4.7,6.6,0.0,0,1004.0,1,2,"",95
"2024-02-07 06:52:00",5.4,4.7,6.6,0.0,0,1004.1,2,4,4.0,95
"2024-02-07 06:53:00",5.4,4.7,6.6,0.0,0,1004.1,2,4,4.0,95
"2024-02-07 06:54:00",5.4,4.7,6.6,0.0,0,1004.0,2,3,"",95